M0TUM-1 Weather Reports


time (UTC)temp
F
wind
direction
speed
knots
gust
knots
rain 1hr
in
rain 24hr
in
rain mn
in
humidity
%
barometer
mb
20260510175400 48 15 5.2 6.1 0.00 0.00 0.00 58 1015.6
20260510174856 48 16 2.6 4.3 0.00 0.00 0.00 57 1015.5
20260510174355 48 12 2.6 7.0 0.00 0.00 0.00 57 1015.9
20260510173850 48 121 8.7 12.2 0.00 0.00 0.00 57 1015.7
20260510173346 49 312 4.3 6.1 0.00 0.00 0.00 56 1015.9
20260510172842 50 123 7.8 7.8 0.00 0.00 0.00 55 1015.9
20260510172339 50 12 7.8 7.8 0.00 0.00 0.00 53 1015.6
20260510171835 50 336 2.6 4.3 0.00 0.00 0.00 55 1016.1
20260510171333 50 61 2.6 6.1 0.00 0.00 0.00 56 1015.7
20260510170830 49 351 4.3 7.0 0.00 0.00 0.00 57 1016.0
20260510170326 50 17 8.7 9.6 0.00 0.00 0.00 56 1016.2
20260510165821 50 162 1.7 2.6 0.00 0.00 0.00 56 1016.1
20260510165318 50 18 6.1 7.0 0.00 0.00 0.00 57 1016.2
20260510164815 50 354 7.0 11.3 0.00 0.00 0.00 58 1016.3
20260510164313 50 5 6.1 11.3 0.00 0.00 0.00 59 1016.3
20260510163812 50 47 6.1 9.6 0.00 0.00 0.00 59 1016.4
20260510163308 50 38 7.8 13.0 0.00 0.00 0.00 58 1016.4
20260510162808 51 26 1.7 4.3 0.00 0.00 0.00 58 1016.5
20260510162306 51 349 2.6 4.3 0.00 0.00 0.00 59 1016.4
20260510161801 50 175 1.7 2.6 0.00 0.00 0.00 59 1016.4
20260510161257 51 327 6.1 7.8 0.00 0.00 0.00 59 1016.7
20260510160754 51 8 7.0 8.7 0.00 0.00 0.00 58 1016.8
20260510160250 51 14 4.3 7.8 0.00 0.00 0.00 58 1016.6
20260510155746 53 18 9.6 13.0 0.00 0.00 0.00 54 1016.6
20260510155242 51 354 3.5 5.2 0.00 0.00 0.00 56 1016.8
20260510154738 52 1 5.2 6.1 0.00 0.00 0.00 55 1016.9
20260510154234 51 11 5.2 7.0 0.00 0.00 0.00 57 1016.8
20260510153729 52 10 5.2 6.1 0.00 0.00 0.00 56 1016.8
20260510153225 52 86 6.1 7.0 0.00 0.00 0.00 56 1017.2
20260510152722 51 53 4.3 7.0 0.00 0.00 0.00 57 1016.9
20260510152218 51 141 2.6 6.1 0.00 0.00 0.00 58 1017.1
20260510151715 53 79 3.5 5.2 0.00 0.00 0.00 55 1017.1
20260510151214 52 10 1.7 1.7 0.00 0.00 0.00 57 1017.3
20260510150709 52 344 4.3 7.0 0.00 0.00 0.00 58 1017.0
20260510150204 52 331 7.8 8.7 0.00 0.00 0.00 58 1017.0
20260510145701 52 32 6.1 7.8 0.00 0.00 0.00 57 1017.3
20260510145157 53 161 0.9 0.9 0.00 0.00 0.00 58 1017.3
20260510144653 52 13 5.2 6.1 0.00 0.00 0.00 59 1017.4
20260510144150 51 7 9.6 11.3 0.00 0.00 0.00 59 1017.4
20260510143645 52 19 9.6 11.3 0.00 0.00 0.00 58 1017.3
20260510143142 52 31 5.2 7.0 0.00 0.00 0.00 56 1017.3
20260510142638 53 63 7.0 8.7 0.00 0.00 0.00 54 1017.6
20260510142135 53 166 2.6 5.2 0.00 0.00 0.00 53 1017.6
20260510141632 53 21 5.2 8.7 0.00 0.00 0.00 54 1017.6
20260510141130 54 47 2.6 5.2 0.00 0.00 0.00 53 1017.7
20260510140626 54 317 0.9 1.7 0.00 0.00 0.00 53 1017.5
20260510140126 53 53 0.9 1.7 0.00 0.00 0.00 55 1017.7
20260510135621 53 18 6.1 9.6 0.00 0.00 0.00 54 1017.6
20260510135117 54 79 7.0 7.8 0.00 0.00 0.00 52 1017.6
20260510134615 52 56 7.0 8.7 0.00 0.00 0.00 56 1018.0
20260510134112 52 40 4.3 7.0 0.00 0.00 0.00 57 1017.9
20260510133608 52 37 10.4 13.0 0.00 0.00 0.00 57 1017.9
20260510133103 54 335 7.0 9.6 0.00 0.00 0.00 57 1017.8
20260510132600 53 59 4.3 7.0 0.00 0.00 0.00 59 1017.7
20260510132057 52 16 5.2 6.1 0.00 0.00 0.00 59 1017.9
20260510131555 52 4 7.0 9.6 0.00 0.00 0.00 59 1017.9
20260510131052 53 25 2.6 4.3 0.00 0.00 0.00 60 1017.8
20260510130548 53 15 9.6 12.2 0.00 0.00 0.00 60 1017.9
20260510130046 53 11 3.5 7.0 0.00 0.00 0.00 62 1017.8
20260510125542 52 28 7.8 11.3 0.00 0.00 0.00 62 1017.9
20260510125038 53 39 4.3 6.1 0.00 0.00 0.00 61 1018.2
20260510124535 52 50 3.5 4.3 0.00 0.00 0.00 61 1018.3
20260510124032 53 31 5.2 7.0 0.00 0.00 0.00 60 1018.4
20260510123528 53 351 3.5 6.1 0.00 0.00 0.00 61 1018.3
20260510123024 53 268 4.3 7.0 0.00 0.00 0.00 62 1018.3
20260510122519 53 8 7.8 13.0 0.00 0.00 0.00 63 1018.3
20260510122015 52 8 13.0 15.6 0.00 0.00 0.00 63 1018.2
20260510121513 52 357 7.8 13.9 0.00 0.00 0.00 64 1018.6
20260510121011 52 17 4.3 7.8 0.00 0.00 0.00 64 1018.6
20260510120508 53 28 4.3 7.8 0.00 0.00 0.00 62 1018.4
20260510120004 53 32 3.5 5.2 0.00 0.00 0.00 63 1018.5
20260510115500 53 28 3.5 5.2 0.00 0.00 0.00 64 1018.8
20260510114956 53 345 7.0 7.8 0.00 0.00 0.00 64 1018.7
20260510114453 52 6 4.3 7.0 0.00 0.00 0.00 65 1018.7
20260510113949 53 64 6.1 7.8 0.00 0.00 0.00 63 1018.6
20260510113444 53 43 8.7 11.3 0.00 0.00 0.00 62 1018.8
20260510112942 53 68 7.8 8.7 0.00 0.00 0.00 63 1018.6
20260510112439 53 68 3.5 4.3 0.00 0.00 0.00 62 1018.6
20260510111936 53 103 3.5 6.1 0.00 0.00 0.00 64 1018.6
20260510111432 52 353 4.3 6.1 0.00 0.00 0.00 65 1018.5
20260510110927 51 10 4.3 6.1 0.00 0.00 0.00 67 1018.7
20260510110424 52 350 5.2 7.8 0.00 0.00 0.00 66 1019.0
20260510105920 52 12 6.1 9.6 0.00 0.00 0.00 67 1018.9
20260510105415 52 28 7.8 9.6 0.00 0.00 0.00 67 1018.9
20260510104910 52 29 6.1 7.8 0.00 0.00 0.00 67 1018.9
20260510104408 52 6 6.1 8.7 0.00 0.00 0.00 67 1019.0
20260510103904 52 12 8.7 12.2 0.00 0.00 0.00 68 1019.0
20260510103401 52 47 10.4 11.3 0.00 0.00 0.00 67 1019.1
20260510102856 52 21 7.8 8.7 0.00 0.00 0.00 67 1018.9
20260510102352 52 52 1.7 1.7 0.00 0.00 0.00 69 1018.9
20260510101850 51 20 9.6 13.9 0.00 0.00 0.00 69 1019.0
20260510101348 51 70 12.2 14.8 0.00 0.00 0.00 68 1019.0
20260510100844 52 51 4.3 6.1 0.00 0.00 0.00 68 1019.0
20260510100342 52 34 2.6 4.3 0.00 0.00 0.00 69 1019.0
20260510095838 51 347 7.0 9.6 0.00 0.00 0.00 69 1019.0
20260510095333 52 134 4.3 7.0 0.00 0.00 0.00 68 1019.2
20260510094832 52 1 6.1 9.6 0.00 0.00 0.00 67 1019.1
20260510094328 51 142 2.6 4.3 0.00 0.00 0.00 68 1019.1
20260510093825 52 52 9.6 12.2 0.00 0.00 0.00 68 1019.1
20260510093320 51 2 7.0 8.7 0.00 0.00 0.00 70 1019.2
20260510092817 52 44 7.0 8.7 0.00 0.00 0.00 69 1019.2
20260510092313 51 66 7.8 11.3 0.00 0.00 0.00 69 1019.2
20260510091809 51 223 5.2 7.0 0.00 0.00 0.00 69 1019.3
20260510091306 51 14 4.3 6.1 0.00 0.00 0.00 70 1019.3
20260510090803 51 203 7.0 8.7 0.00 0.00 0.00 70 1019.4
20260510090259 50 15 5.2 8.7 0.00 0.00 0.00 72 1019.5
20260510085756 51 33 6.1 7.8 0.00 0.00 0.00 73 1019.5
20260510085255 51 33 6.1 9.6 0.00 0.00 0.00 73 1019.5
20260510084751 51 348 6.1 7.8 0.00 0.00 0.00 73 1019.4
20260510084248 50 28 4.3 7.0 0.00 0.00 0.00 74 1019.6
20260510083745 50 22 6.1 12.2 0.00 0.00 0.00 75 1019.5
20260510083242 50 32 7.8 9.6 0.00 0.00 0.00 75 1019.6
20260510082738 50 58 8.7 11.3 0.00 0.00 0.00 76 1019.4
20260510082234 50 356 7.0 9.6 0.00 0.00 0.00 77 1019.4
20260510081733 50 12 3.5 7.0 0.00 0.00 0.00 78 1019.6
20260510081230 50 355 3.5 5.2 0.00 0.00 0.00 79 1019.4
20260510080725 50 22 4.3 7.8 0.00 0.00 0.00 79 1019.3
20260510080221 50 7 7.0 9.6 0.00 0.00 0.00 78 1019.4
20260510075718 50 343 9.6 11.3 0.00 0.00 0.00 78 1019.4
20260510075216 50 287 0.9 1.7 0.00 0.00 0.00 79 1019.3
20260510074713 50 28 6.1 6.1 0.00 0.00 0.00 79 1019.3
20260510074209 50 65 3.5 5.2 0.00 0.00 0.00 79 1019.3
20260510073705 50 64 5.2 6.1 0.00 0.00 0.00 80 1019.3
20260510073201 50 32 4.3 7.0 0.00 0.00 0.00 80 1019.3
20260510072657 50 39 1.7 1.7 0.00 0.00 0.00 80 1019.3
20260510072154 50 156 3.5 5.2 0.00 0.00 0.00 80 1019.5
20260510071650 50 33 3.5 4.3 0.00 0.00 0.00 80 1019.2
20260510071148 50 105 2.6 4.3 0.00 0.00 0.00 80 1019.3
20260510070645 50 101 8.7 12.2 0.00 0.00 0.00 80 1019.2
20260510070142 50 10 0.9 0.9 0.00 0.00 0.00 80 1019.2
20260510065637 50 6 2.6 2.6 0.00 0.00 0.00 80 1019.1
20260510065134 50 11 5.2 8.7 0.00 0.00 0.00 80 1019.1
20260510064630 50 18 7.8 14.8 0.00 0.00 0.00 80 1019.0
20260510064127 50 118 2.6 4.3 0.00 0.00 0.00 80 1019.0
20260510063624 50 13 2.6 5.2 0.00 0.00 0.00 79 1018.7
20260510063121 51 183 4.3 7.0 0.00 0.00 0.00 79 1018.7
20260510062617 51 152 1.7 2.6 0.00 0.00 0.00 79 1018.8
20260510062113 50 340 9.6 14.8 0.00 0.00 0.00 78 1018.8
20260510061609 50 15 7.8 7.8 0.00 0.00 0.00 78 1018.7
20260510061106 51 325 7.0 9.6 0.00 0.00 0.00 79 1018.5
20260510060602 51 51 3.5 6.1 0.00 0.00 0.00 79 1018.4
20260510060059 51 13 12.2 14.8 0.00 0.00 0.00 79 1018.5
20260510055554 51 107 6.1 8.7 0.00 0.00 0.00 80 1018.5
20260510055053 50 16 7.0 8.7 0.00 0.00 0.00 80 1018.5
20260510054549 50 17 1.7 2.6 0.00 0.00 0.00 80 1018.5
20260510054043 50 0 8.7 12.2 0.00 0.00 0.00 81 1018.4
20260510053538 50 125 7.8 9.6 0.00 0.00 0.00 81 1018.3
20260510053035 50 21 7.8 11.3 0.00 0.00 0.00 82 1018.5
20260510052531 50 30 6.1 7.0 0.00 0.00 0.00 82 1018.5
20260510052027 50 22 2.6 6.1 0.00 0.00 0.00 83 1018.5
20260510051523 50 45 4.3 7.0 0.00 0.00 0.00 84 1018.7
20260510051020 49 1 7.0 11.3 0.00 0.00 0.00 84 1018.5
20260510050517 49 21 6.1 7.0 0.00 0.00 0.00 85 1018.5
20260510050014 49 20 1.7 2.6 0.00 0.00 0.00 85 1018.7
20260510045512 49 332 3.5 5.2 0.00 0.00 0.00 85 1018.6
20260510045007 49 325 0.9 1.7 0.00 0.00 0.00 86 1018.7
20260510044505 49 116 2.6 6.1 0.00 0.00 0.00 86 1018.6
20260510044002 49 143 0.9 1.7 0.00 0.00 0.00 86 1018.7
20260510043457 49 41 2.6 2.6 0.00 0.00 0.00 86 1018.9
20260510042956 49 32 2.6 4.3 0.00 0.00 0.00 86 1018.6
20260510042452 49 29 3.5 4.3 0.00 0.00 0.00 86 1018.7
20260510041947 49 173 1.7 2.6 0.00 0.00 0.00 86 1018.6
20260510041444 49 22 0.9 1.7 0.00 0.00 0.00 85 1018.8
20260510040942 49 31 1.7 1.7 0.00 0.00 0.00 85 1018.8
20260510040438 48 98 1.7 2.6 0.00 0.00 0.00 85 1018.8
20260510035934 48 40 2.6 2.6 0.00 0.00 0.00 85 1018.9
20260510035430 48 14 4.3 5.2 0.00 0.00 0.00 85 1018.7
20260510034925 48 12 2.6 2.6 0.00 0.00 0.00 85 1018.9
20260510034424 48 4 2.6 2.6 0.00 0.00 0.00 85 1018.6
20260510033920 48 31 3.5 4.3 0.00 0.00 0.00 85 1018.8
20260510033416 48 148 1.7 2.6 0.00 0.00 0.00 85 1019.0
20260510032913 48 101 1.7 2.6 0.00 0.00 0.00 85 1018.9
20260510032410 48 20 2.6 4.3 0.00 0.00 0.00 85 1019.1
20260510031905 48 16 2.6 4.3 0.00 0.00 0.00 85 1019.2
20260510031400 48 83 0.0 0.9 0.00 0.00 0.00 85 1019.2
20260510030855 48 83 2.6 4.3 0.00 0.00 0.00 86 1019.1
20260510030351 48 21 1.7 2.6 0.00 0.00 0.00 86 1019.2
20260510025849 48 131 1.7 4.3 0.00 0.00 0.00 86 1019.0
20260510025347 48 11 0.9 1.7 0.00 0.00 0.00 86 1019.2
20260510024843 48 25 0.9 1.7 0.00 0.00 0.00 86 1019.2
20260510024340 48 7 3.5 4.3 0.00 0.00 0.00 86 1019.3
20260510023836 48 13 2.6 2.6 0.00 0.00 0.00 86 1019.1
20260510023333 48 18 1.7 2.6 0.00 0.00 0.00 86 1019.4
20260510022830 48 357 2.6 2.6 0.00 0.00 0.00 86 1019.3
20260510022329 48 111 0.9 0.9 0.00 0.00 0.00 86 1019.2
20260510021828 48 66 0.0 0.9 0.00 0.00 0.00 86 1019.1
20260510021327 48 7 0.9 1.7 0.00 0.00 0.00 86 1019.3
20260510020822 48 23 1.7 1.7 0.00 0.00 0.00 86 1019.1
20260510020317 48 359 1.7 1.7 0.00 0.00 0.00 86 1019.4
20260510015813 48 352 2.6 2.6 0.00 0.00 0.00 86 1019.1
20260510015310 48 35 0.9 0.9 0.00 0.00 0.00 86 1019.3
20260510014805 49 109 0.9 1.7 0.00 0.00 0.00 86 1019.2
20260510014302 49 188 0.9 0.9 0.00 0.00 0.00 86 1019.2
20260510013758 49 229 0.0 0.9 0.00 0.00 0.00 86 1019.2
20260510013254 49 348 0.9 0.9 0.00 0.00 0.00 86 1019.3
20260510012749 49 336 1.7 2.6 0.00 0.00 0.00 86 1019.3
20260510012244 49 18 1.7 1.7 0.00 0.00 0.00 86 1019.4
20260510011743 49 206 0.0 0.9 0.00 0.00 0.00 86 1019.3
20260510011239 49 299 1.7 2.6 0.00 0.00 0.00 85 1019.2
20260510010737 49 5 3.5 4.3 0.00 0.00 0.00 85 1019.3
20260510010233 49 346 1.7 1.7 0.00 0.00 0.00 85 1019.2
20260510005730 49 40 2.6 4.3 0.00 0.00 0.00 85 1019.1
20260510005226 49 13 1.7 1.7 0.00 0.00 0.00 84 1019.2
20260510004724 49 118 2.6 2.6 0.00 0.00 0.00 84 1019.4
20260510004222 50 359 3.5 4.3 0.00 0.00 0.00 84 1019.2
20260510003719 50 0 1.7 2.6 0.00 0.00 0.00 84 1019.3
20260510003215 50 31 1.7 1.7 0.00 0.00 0.00 83 1019.3
20260510002714 50 22 5.2 6.1 0.00 0.00 0.00 83 1019.3
20260510002212 50 136 0.9 0.9 0.00 0.00 0.00 83 1019.3
20260510001708 51 13 1.7 2.6 0.00 0.00 0.00 83 1019.3
20260510001207 51 47 4.3 6.1 0.00 0.00 0.00 83 1019.6
20260510000702 51 108 4.3 7.0 0.00 0.00 0.00 83 1019.8
20260510000200 51 9 4.3 7.0 0.00 0.00 0.00 83 1020.0
20260509235656 51 22 3.5 4.3 0.00 0.00 0.00 83 1020.0
20260509235152 51 18 3.5 6.1 0.00 0.00 0.00 83 1019.9
20260509234649 52 17 4.3 5.2 0.00 0.00 0.00 83 1019.7
20260509234146 52 31 2.6 2.6 0.00 0.00 0.00 83 1019.6
20260509233644 51 12 4.3 7.0 0.00 0.00 0.00 83 1019.7
20260509233141 51 19 6.1 8.7 0.00 0.00 0.00 83 1019.6
20260509232637 52 18 6.1 7.8 0.00 0.00 0.00 83 1019.7
20260509232134 52 24 6.1 7.0 0.00 0.00 0.00 84 1019.9
20260509231631 52 343 1.7 2.6 0.00 0.00 0.00 84 1019.7
20260509231128 52 15 1.7 2.6 0.00 0.00 0.00 84 1019.8
20260509230625 52 25 1.7 1.7 0.00 0.00 0.00 84 1019.5
20260509230122 52 358 2.6 2.6 0.00 0.00 0.00 84 1019.6
20260509225618 51 352 3.5 4.3 0.00 0.00 0.00 84 1019.7
20260509225113 51 105 4.3 6.1 0.00 0.00 0.00 84 1019.7
20260509224609 51 175 2.6 4.3 0.00 0.00 0.00 84 1019.4
20260509224106 51 21 6.1 7.8 0.00 0.00 0.00 84 1019.4
20260509223603 51 9 4.3 6.1 0.00 0.00 0.00 85 1019.5
20260509223101 51 357 4.3 6.1 0.00 0.00 0.00 85 1019.2
20260509222557 51 46 2.6 6.1 0.00 0.00 0.00 85 1019.3
20260509222053 51 1 4.3 6.1 0.00 0.00 0.00 85 1019.5
20260509221548 51 152 4.3 6.1 0.00 0.00 0.00 86 1019.5
20260509221045 51 20 5.2 6.1 0.00 0.00 0.00 86 1019.5
20260509220541 51 241 0.9 1.7 0.00 0.00 0.00 86 1019.3
20260509220037 51 53 3.5 4.3 0.00 0.00 0.00 86 1019.4
20260509215532 51 132 1.7 1.7 0.00 0.00 0.00 86 1019.4
20260509215030 51 103 2.6 4.3 0.00 0.00 0.00 86 1019.3
20260509214527 51 13 5.2 7.0 0.00 0.00 0.00 86 1019.3
20260509214024 51 9 0.9 1.7 0.00 0.00 0.00 86 1019.3
20260509213520 51 14 2.6 2.6 0.00 0.00 0.00 86 1019.2
20260509213017 51 5 2.6 5.2 0.00 0.00 0.00 86 1019.3
20260509212514 51 15 4.3 5.2 0.00 0.00 0.00 86 1019.2
20260509212011 51 2 4.3 5.2 0.00 0.00 0.00 86 1019.5
20260509211506 52 23 1.7 2.6 0.00 0.00 0.00 86 1019.4
20260509211003 52 15 4.3 6.1 0.00 0.00 0.00 86 1019.5
20260509210500 52 16 3.5 4.3 0.00 0.00 0.00 86 1019.4
20260509205956 52 14 3.5 5.2 0.00 0.00 0.00 85 1019.6
20260509205450 52 32 2.6 2.6 0.00 0.00 0.00 85 1019.4
20260509204946 52 73 2.6 2.6 0.00 0.00 0.00 85 1019.4
20260509204443 52 346 1.7 1.7 0.00 0.00 0.00 85 1019.5
20260509203940 52 4 0.9 1.7 0.00 0.00 0.00 85 1019.2
20260509203435 52 6 1.7 2.6 0.00 0.00 0.00 85 1019.2
20260509202933 52 64 6.1 8.7 0.00 0.00 0.00 85 1019.1
20260509202429 52 8 2.6 4.3 0.00 0.00 0.00 85 1019.2
20260509201924 52 24 2.6 4.3 0.00 0.00 0.00 85 1019.3
20260509201420 52 4 5.2 6.1 0.00 0.00 0.00 84 1019.2
20260509200917 52 2 2.6 2.6 0.00 0.00 0.00 84 1019.3
20260509200417 52 321 4.3 6.1 0.00 0.00 0.00 84 1019.4
20260509195914 53 354 1.7 1.7 0.00 0.00 0.00 83 1019.2
20260509195409 53 30 3.5 4.3 0.00 0.00 0.00 83 1019.1
20260509194909 53 42 0.9 1.7 0.00 0.00 0.00 82 1019.0
20260509194405 54 18 4.3 6.1 0.00 0.00 0.00 82 1019.0
20260509193902 54 358 3.5 4.3 0.00 0.00 0.00 81 1019.0
20260509193401 54 34 3.5 4.3 0.00 0.00 0.00 80 1019.1
20260509192858 54 124 2.6 4.3 0.00 0.00 0.00 80 1018.9
20260509192354 55 33 2.6 2.6 0.00 0.00 0.00 79 1018.6
20260509191849 55 16 2.6 2.6 0.00 0.00 0.00 78 1018.7
20260509191345 55 28 3.5 4.3 0.00 0.00 0.00 76 1018.7
20260509190842 56 17 3.5 4.3 0.00 0.00 0.00 76 1018.6
20260509190338 56 63 3.5 5.2 0.00 0.00 0.00 74 1018.7
20260509185836 56 68 2.6 5.2 0.00 0.00 0.00 73 1018.6
20260509185332 57 26 4.3 6.1 0.00 0.00 0.00 71 1018.7
20260509184830 57 22 3.5 6.1 0.00 0.00 0.00 70 1018.7
20260509184327 57 9 2.6 2.6 0.00 0.00 0.00 69 1018.7
20260509183823 58 40 3.5 5.2 0.00 0.00 0.00 68 1018.5
20260509183319 59 216 0.9 0.9 0.00 0.00 0.00 68 1018.9
20260509182815 59 329 0.9 1.7 0.00 0.00 0.00 68 1018.6
20260509182312 58 30 1.7 1.7 0.00 0.00 0.00 68 1018.7
20260509181809 59 9 5.2 6.1 0.00 0.00 0.00 66 1018.6
20260509181307 59 22 4.3 6.1 0.00 0.00 0.00 65 1018.4
20260509180804 59 2 0.9 4.3 0.00 0.00 0.00 65 1018.6
20260509180300 59 34 4.3 5.2 0.00 0.00 0.00 65 1018.5
20260509175756 59 7 1.7 1.7 0.00 0.00 0.00 63 1018.6